GMT,Max TemperatureF,Mean TemperatureF,Min TemperatureF,Max Dew PointF,MeanDew PointF,Min DewpointF,Max Humidity, Mean Humidity, Min Humidity, Max Sea Level PressureIn, Mean Sea Level PressureIn, Min Sea Level PressureIn, Max VisibilityMiles, Mean VisibilityMiles, Min VisibilityMiles, Max Wind SpeedMPH, Mean Wind SpeedMPH, Max Gust SpeedMPH,PrecipitationIn, CloudCover, Events, WindDirDegrees
2012-12-1,44,34,24,37,31,23,100,90,68,30.06,29.98,29.95,17,4,0,14,6,,0.01,3,Fog-Rain,289
2012-12-2,41,35,29,39,33,27,100,90,74,30.08,30.01,29.89,16,6,1,12,5,,0.01,5,Rain,233
2012-12-3,49,43,37,48,41,35,100,87,64,29.86,29.76,29.65,19,7,0,21,13,,0.01,6,Fog-Rain,261
2012-12-4,43,38,32,36,34,30,100,87,69,29.71,29.66,29.59,19,8,3,17,11,,0.00,3,Fog,265
2012-12-5,39,34,28,34,29,25,100,83,58,30.07,29.81,29.59,19,6,3,20,8,,0.01,4,Fog,333
2012-12-6,42,33,24,39,30,23,93,86,75,30.10,29.89,29.50,14,7,6,23,8,30,0.12,6,Rain,217
2012-12-7,44,40,35,38,35,32,93,80,61,30.03,29.68,29.47,10,6,5,23,18,30,0.03,5,Rain,313
2012-12-8,45,39,33,37,35,32,100,86,61,30.35,30.25,30.04,17,7,4,16,8,,0.00,4,,305
2012-12-9,47,42,37,41,39,32,93,83,69,30.25,30.12,30.06,19,7,6,23,14,,0.01,6,Rain,291
2012-12-10,41,34,28,34,31,27,93,84,63,30.40,30.23,30.06,19,7,6,14,10,,0.00,1,,338
2012-12-11,37,28,19,34,28,17,100,94,83,30.45,30.40,30.30,7,2,0,8,5,,0.00,3,Fog-Snow,332
2012-12-12,37,28,19,34,26,18,100,90,80,30.29,30.06,29.83,8,6,4,12,4,,0.00,6,Fog,101
2012-12-13,33,30,26,32,29,24,100,91,80,29.80,29.61,29.44,6,3,0,14,11,,0.00,6,Fog-Rain,87
2012-12-14,50,42,33,49,42,34,100,91,71,29.42,29.01,28.74,19,5,0,29,17,40,0.51,6,Fog-Rain,178
2012-12-15,50,44,39,45,42,37,100,90,76,29.47,29.29,29.09,19,7,3,22,13,,0.16,4,Rain-Hail,211
2012-12-16,48,42,37,45,41,37,100,95,87,29.58,29.50,29.44,16,6,1,20,10,43,0.12,4,Rain,202
2012-12-17,48,44,39,41,39,37,100,86,69,29.70,29.58,29.47,19,8,6,15,11,,0.02,3,Rain,236
2012-12-18,47,41,33,41,38,34,100,88,69,30.12,29.99,29.74,19,6,1,13,8,,0.00,4,,332
2012-12-19,46,40,33,46,41,34,100,95,87,30.07,29.92,29.71,11,4,1,23,15,,0.20,8,Rain,124
2012-12-20,51,48,44,52,47,43,100,96,87,29.68,29.53,29.39,16,6,1,21,15,,0.43,7,Rain,190
2012-12-21,49,45,41,45,43,39,100,94,79,29.97,29.84,29.65,12,6,1,14,9,,0.00,5,Fog-Rain,232
2012-12-22,55,50,44,54,50,43,100,95,89,29.89,29.63,29.56,16,6,2,22,16,,0.31,6,Rain,208
2012-12-23,53,50,46,52,46,43,100,85,73,29.74,29.65,29.53,16,7,5,23,16,,0.00,7,Rain,234
2012-12-24,53,48,44,50,46,42,100,93,81,29.68,29.46,29.33,14,6,3,25,12,37,0.20,5,Rain-Hail,201
2012-12-25,48,44,41,45,41,37,93,86,71,29.65,29.40,29.24,19,7,4,21,13,,0.16,5,Rain,227
2012-12-26,50,46,41,48,41,37,94,85,72,29.78,29.66,29.53,14,7,6,28,14,33,0.08,5,Rain,242
2012-12-27,46,42,39,43,38,36,93,81,64,30.16,29.81,29.44,16,7,4,21,14,,0.08,5,Rain,256
2012-12-28,52,46,41,50,48,39,100,93,86,30.13,29.98,29.83,17,6,2,31,15,43,0.04,6,Rain,210
2012-12-29,50,46,41,49,43,34,94,86,70,29.80,29.61,29.47,19,6,2,30,24,45,0.28,5,Rain,216
2012-12-30,50,44,39,45,39,34,87,78,67,29.93,29.85,29.68,19,8,6,25,16,39,0.01,4,Rain,238
2012-12-31,50,48,46,49,46,44,94,89,76,29.83,29.59,29.47,19,7,3,28,21,37,0.28,6,Rain,228